Location: Limerick
(52.6650°N, 8.6230°W)
Time: 04:49:24
(UTC+00:00)

ISS - Pass Details

Date: 10 December 2019
Orbit: 411 x 421 km, 51.6° (Epoch: 15 December)

Event Time Altitude Azimuth Distance (km) Brightness Sun altitude
Rises 17:20:26 0° 281° (W) 2,357 1.0 -8.6°
Reaches altitude 10° 17:22:41 10° 269° (W) 1,494 0.2 -8.9°
Maximum altitude 17:25:37 28° 209° (SSW) 813 -1.6 -9.3°
Drops below altitude 10° 17:28:33 10° 148° (SSE) 1,493 -1.0 -9.7°
Sets 17:30:48 0° 136° (SE) 2,356 -0.1 -10.0°
